Location: Calais Saint-Pierre
(50.9509°N, 1.8522°E)
Time: 13:41:24
(UTC+00:00)

Cosmos 2219 Rocket - Pass Details

Date: 15 May 2026
Orbit: 825 x 846 km, 71.0° (Epoch: 10 June)

Event Time Altitude Azimuth Distance (km) Brightness Sun altitude
Rises 21:56:52 0° 328° (NNW) 3,405 7.2 -15.8°
Reaches altitude 10° 21:59:19 10° 326° (NNW) 2,470 6.0 -16.0°
Maximum altitude 22:04:56 68° 245° (WSW) 911 2.3 -16.4°
Enters shadow 22:08:11 26° 169° (S) 1,610 3.1 -16.6°
